Cape Byron Observation History
Time Wind Speed Temp Pressure Rel. Hum Rain
11/07:00pm N 15-20 kts 24.2°c 1011.1 hPa 92% 0.2mm
11/06:30pm NNE 16-23 kts 24.5°c 1010.6 hPa 90% 0.2mm
11/06:00pm NNE 15-22 kts 24.9°c 1010.0 hPa 88% 0.2mm
11/05:30pm NNE 12-19 kts 25.2°c 1009.9 hPa 86% 0.2mm
11/05:00pm NE 13-18 kts 25.9°c 1010.1 hPa 84% 0.2mm
11/04:30pm NE 16-22 kts 26.3°c 1010.0 hPa 80% 0.2mm
11/04:00pm NE 16-21 kts 27.1°c 1010.6 hPa 77% 0.2mm
11/03:30pm NE 19-22 kts 26.9°c 1010.8 hPa 76% 0.2mm
11/03:00pm NE 16-19 kts 28.4°c 1011.4 hPa 71% 0.2mm
11/02:30pm NE 16-18 kts 29.9°c 1011.7 hPa 65% 0.2mm
11/02:00pm NE 13-15 kts 30.7°c 1012.1 hPa 62% 0.2mm
11/01:30pm NE 11-15 kts 30.0°c 1012.3 hPa 65% 0.2mm
11/01:00pm NE 11-14 kts 29.0°c 1012.4 hPa 70% 0.2mm
11/12:30pm NNE 10-14 kts 27.2°c 1012.7 hPa 69% 0.2mm
11/12:00pm NNE 11-16 kts 26.6°c 1012.9 hPa 74% 0.2mm
11/11:30am NNE 10-18 kts 26.8°c 1013.0 hPa 72% 0.0mm
11/11:00am N 10-15 kts 25.9°c 1013.2 hPa 77% 0.0mm
11/10:30am N 10-17 kts 25.5°c 1013.3 hPa 80% 0.0mm
11/10:00am N 14-20 kts 24.6°c 1012.6 hPa 85% 0.0mm
11/09:30am N 10-15 kts 24.5°c 1013.0 hPa 87% 0.0mm
11/09:00am N 14-18 kts 24.0°c 1013.2 hPa 92% 0.0mm
11/08:30am NNE 12-17 kts 23.9°c 1013.4 hPa 94% 0.0mm
11/08:00am NNE 9-13 kts 23.8°c 1013.8 hPa 89% 0.0mm
11/07:30am NNE 9-13 kts 23.4°c 1013.9 hPa 89% 0.0mm
11/07:00am N 7-8 kts 22.9°c 1013.9 hPa 92% 0.0mm
11/06:30am NNW 5-8 kts 22.9°c 1013.7 hPa 94% 0.0mm
11/06:00am NNW 4-7 kts 23.0°c 1013.5 hPa 93% 0.0mm
11/05:30am NNW 10-17 kts 23.1°c 1012.6 hPa 93% 0.0mm
11/05:00am N 14-19 kts 23.1°c 1011.2 hPa 93% 0.0mm
11/04:30am N 13-19 kts 23.0°c 1011.1 hPa 94% 0.0mm
11/04:00am N 13-19 kts 23.3°c 1011.2 hPa 93% 0.0mm
11/03:30am N 15-21 kts 23.5°c 1010.9 hPa 90% 0.0mm
11/03:00am N 15-21 kts 23.7°c 1011.0 hPa 85% 0.0mm
11/02:30am N 19-27 kts 23.3°c 1010.3 hPa 88% 0.0mm
11/02:00am N 17-23 kts 23.5°c 1010.5 hPa 90% 0.0mm
11/01:30am N 17-24 kts 23.7°c 1011.5 hPa 87% 0.0mm
11/01:06am N 19-29 kts 23.9°c 1011.6 hPa 76% 0.0mm
11/01:00am N 21-29 kts 23.6°c 1010.9 hPa 74% 0.0mm
11/12:30am NNE 15-23 kts 23.3°c 1012.7 hPa 80% 0.0mm
11/12:00am NNW 9-13 kts 23.4°c 1014.4 hPa 88% 0.0mm
Time Wind Speed Temp Pressure Rel. Hum Rain
10/11:30pm NNW 9-16 kts 23.5°c 1015.4 hPa 89% 0.0mm
10/11:00pm NNW 10-15 kts 23.4°c 1015.7 hPa 87% 0.0mm
10/10:30pm NNW 11-16 kts 23.7°c 1015.7 hPa 90% 0.0mm
10/10:00pm NNW 10-20 kts 23.9°c 1015.7 hPa 89% 0.0mm
10/09:30pm N 16-23 kts 23.9°c 1013.8 hPa 89% 0.0mm
10/09:00pm N 18-23 kts 23.9°c 1013.3 hPa 88% 0.0mm
10/08:30pm N 17-23 kts 24.0°c 1013.3 hPa 89% 0.0mm
10/08:00pm N 15-23 kts 24.0°c 1013.3 hPa 87% 0.0mm
10/07:30pm N 15-20 kts 24.0°c 1013.2 hPa 87% 0.0mm
10/07:00pm N 16-21 kts 24.2°c 1012.8 hPa 86% 0.0mm
10/06:30pm N 18-26 kts 24.5°c 1012.3 hPa 85% 0.0mm
10/06:00pm N 18-24 kts 24.7°c 1012.2 hPa 83% 0.0mm
10/05:30pm N 18-23 kts 24.9°c 1012.0 hPa 84% 0.0mm
10/05:00pm N 18-25 kts 25.4°c 1012.1 hPa 81% 0.0mm
10/04:30pm NNE 16-26 kts 25.8°c 1012.4 hPa 79% 0.0mm
10/04:12pm NNE 16-26 kts 25.9°c 1012.5 hPa 79% 0.0mm
10/04:00pm NNE 17-25 kts 25.9°c 1012.7 hPa 78% 0.0mm
10/03:30pm NNE 18-25 kts 26.1°c 1013.1 hPa 78% 0.0mm
10/03:03pm NNE 17-27 kts 26.2°c 1013.4 hPa 77% 0.0mm
10/03:00pm NNE 17-25 kts 26.2°c 1013.5 hPa 77% 0.0mm
10/02:30pm NNE 15-24 kts 26.1°c 1013.8 hPa 77% 0.0mm
10/02:00pm NE 16-23 kts 26.5°c 1014.3 hPa 75% 0.0mm
10/01:30pm NE 16-23 kts 26.5°c 1014.6 hPa 76% 0.0mm
10/01:00pm NE 19-25 kts 26.7°c 1014.8 hPa 77% 0.0mm
10/12:30pm NE 16-23 kts 26.4°c 1015.5 hPa 77% 0.0mm
10/12:00pm NE 16-23 kts 26.2°c 1016.1 hPa 76% 0.0mm
10/11:30am NE 16-21 kts 26.3°c 1016.7 hPa 77% 0.0mm
10/11:00am NNE 12-16 kts 26.2°c 1017.2 hPa 78% 0.0mm
10/10:30am NE 12-17 kts 25.8°c 1017.3 hPa 78% 0.0mm
10/10:00am NNE 9-12 kts 25.5°c 1017.5 hPa 79% 0.0mm
10/09:30am NNE 8-12 kts 24.7°c 1017.6 hPa 82% 0.0mm
10/09:00am N 7-10 kts 24.5°c 1017.8 hPa 86% 0.2mm
10/08:30am N 7-9 kts 23.9°c 1018.0 hPa 91% 0.2mm
10/08:00am N 7-11 kts 23.4°c 1017.8 hPa 94% 0.2mm
10/07:30am N 8-11 kts 23.0°c 1017.6 hPa 96% 0.2mm
10/07:00am N 8-11 kts 22.9°c 1017.8 hPa 97% 0.2mm
10/06:30am N 9-12 kts 22.7°c 1017.7 hPa 97% 0.2mm
10/06:00am N 9-12 kts 22.5°c 1017.6 hPa 98% 0.2mm
10/05:30am N 7-9 kts 22.5°c 1017.6 hPa 98% 0.2mm
10/05:00am N 7-9 kts 22.6°c 1017.4 hPa 98% 0.2mm
10/04:30am N 6-8 kts 22.8°c 1017.5 hPa 98% 0.2mm
10/04:00am N 7-9 kts 23.0°c 1017.5 hPa 97% 0.2mm
10/03:30am N 7-10 kts 23.3°c 1017.4 hPa 96% 0.2mm
10/03:00am NNE 9-13 kts 23.6°c 1017.5 hPa 96% 0.2mm
10/02:30am NNE 11-15 kts 23.6°c 1017.7 hPa 95% 0.2mm
10/02:00am NNE 9-14 kts 23.6°c 1018.1 hPa 94% 0.2mm
10/01:30am NE 12-16 kts 23.7°c 1018.3 hPa 94% 0.2mm
10/01:00am NE 12-17 kts 23.7°c 1018.7 hPa 93% 0.2mm
10/12:30am NE 14-19 kts 23.7°c 1019.0 hPa 92% 0.2mm
10/12:00am NE 17-20 kts 23.8°c 1019.2 hPa 92% 0.2mm
Time Wind Speed Temp Pressure Rel. Hum Rain
09/11:30pm NE 16-20 kts 23.8°c 1019.5 hPa 90% 0.2mm
09/11:00pm NE 17-20 kts 23.8°c 1019.8 hPa 90% 0.2mm
09/10:30pm NE 18-21 kts 23.9°c 1020.0 hPa 90% 0.2mm
09/10:00pm NE 18-21 kts 23.8°c 1019.9 hPa 90% 0.2mm
09/09:30pm NE 17-19 kts 23.8°c 1019.9 hPa 90% 0.2mm
09/09:00pm NE 19-22 kts 23.9°c 1019.6 hPa 89% 0.2mm
09/08:30pm NE 18-20 kts 23.8°c 1019.7 hPa 87% 0.2mm
09/08:00pm NE 21-23 kts 23.9°c 1019.2 hPa 87% 0.2mm
09/07:30pm ENE 20-22 kts 24.2°c 1019.1 hPa 84% 0.2mm
09/07:00pm NE 18-22 kts 24.6°c 1019.0 hPa 81% 0.2mm
09/06:30pm ENE 17-20 kts 25.5°c 1018.9 hPa 76% 0.2mm
09/06:00pm ENE 10-15 kts 26.3°c 1019.0 hPa 73% 0.2mm
09/05:30pm ENE 9-13 kts 27.3°c 1019.1 hPa 69% 0.2mm
09/05:00pm ENE 10-14 kts 27.8°c 1019.4 hPa 67% 0.2mm
09/04:30pm E 10-15 kts 28.3°c 1019.4 hPa 65% 0.2mm
09/04:00pm E 9-14 kts 27.5°c 1019.8 hPa 68% 0.2mm
09/03:30pm E 10-16 kts 27.0°c 1020.0 hPa 69% 0.2mm
09/03:00pm E 9-13 kts 27.4°c 1020.5 hPa 68% 0.2mm
09/02:30pm E 9-13 kts 26.5°c 1020.7 hPa 75% 0.0mm
09/02:00pm E 9-14 kts 25.6°c 1020.8 hPa 75% 0.0mm
09/01:30pm E 9-13 kts 25.7°c 1021.1 hPa 74% 0.0mm
09/01:00pm E 11-17 kts 25.8°c 1021.4 hPa 75% 0.0mm
09/12:30pm E 10-15 kts 24.6°c 1021.6 hPa 81% 0.0mm
09/12:00pm E 10-14 kts 24.2°c 1021.9 hPa 82% 0.0mm
09/11:30am ENE 10-14 kts 24.3°c 1022.0 hPa 82% 0.0mm
09/11:00am E 9-13 kts 24.7°c 1022.1 hPa 80% 0.0mm
09/10:30am E 13-16 kts 25.6°c 1022.1 hPa 75% 0.0mm
09/10:00am E 14-17 kts 26.3°c 1021.9 hPa 74% 0.0mm
09/09:30am E 9-13 kts 25.9°c 1022.0 hPa 77% 0.0mm
09/09:00am SE 7-11 kts 24.8°c 1022.1 hPa 83% 0.0mm
09/08:30am ESE 6-9 kts 23.9°c 1022.1 hPa 86% 0.0mm
09/08:00am SW 4-6 kts 22.3°c 1022.0 hPa 89% 0.0mm
09/07:30am SSW 5-7 kts 22.2°c 1021.7 hPa 89% 0.0mm
09/07:00am SSE 5-9 kts 22.6°c 1021.4 hPa 92% 0.0mm
09/06:30am E 7-10 kts 23.1°c 1021.0 hPa 92% 0.0mm
09/06:00am E 7-11 kts 22.9°c 1020.8 hPa 92% 0.0mm
09/05:30am E 7-10 kts 22.8°c 1020.5 hPa 92% 0.0mm
09/05:00am E 7-10 kts 22.9°c 1020.1 hPa 92% 0.0mm
09/04:30am ENE 7-10 kts 22.8°c 1019.9 hPa 92% 0.0mm
09/04:00am ENE 7-10 kts 22.9°c 1019.8 hPa 92% 0.0mm
09/03:30am E 7-10 kts 22.9°c 1019.9 hPa 92% 0.0mm
09/03:00am E 9-13 kts 23.0°c 1019.8 hPa 93% 0.0mm
09/02:30am E 9-12 kts 22.9°c 1019.8 hPa 92% 0.0mm
09/02:00am E 11-13 kts 23.0°c 1019.9 hPa 93% 0.0mm
09/01:30am ENE 8-11 kts 23.0°c 1020.2 hPa 93% 0.0mm
09/01:00am E 10-13 kts 22.9°c 1020.5 hPa 92% 0.0mm
09/12:30am SE 9-13 kts 22.7°c 1020.8 hPa 90% 0.0mm
09/12:00am SSE 9-13 kts 23.0°c 1020.9 hPa 88% 0.0mm